Regional Weather Roundup
Issued by NWS Grand Forks, ND

Home | Current Version | Previous Version | Text Only | Print | Product List | Glossary On
Versions: 1 2 3 4 5 6 7 8 9 10 11 12 13 14 15 16 17 18 19 20 21 22 23 24 25 26 27 28 29 30 31 32 33 34 35 36 37 38 39 40 41 42 43 44 45 46 47 48 49 50
000
ASUS43 KFGF 051331
RWRFGF
PRAIRIE TO PINES  WEATHER ROUNDUP
NATIONAL WEATHER SERVICE EASTERN NORTH DAKOTA/GRAND FORKS ND
800 AM CDT WED AUG 05 2015

 **SATELLITE DATA USED TO AUGMENT SKY COVER AT AUTOMATED STATIONS**
 *****  WEATHER ACROSS EASTERN NORTH DAKOTA  *****

CITY           SKY/WX    TMP DP  RH WIND       PRES   REMARKS
GRAND FORKS    PTSUNNY   59  54  83 S7        30.02F
GRAND FRKS AFB PTSUNNY   59  55  85 S7        30.02F
GRAND FRKS NWS   N/A     57 N/A N/A S6          N/A
DEVILS LAKE    CLOUDY    64  52  63 SE13      29.97F
FARGO          MOSUNNY   65  55  70 SE8       30.02S
WAHPETON ARPT  PTSUNNY   61  54  77 SE7       30.03S
$$

 ***** WEATHER ACROSS CENTRAL AND WESTERN NORTH DAKOTA  *****

CITY           SKY/WX    TMP DP  RH WIND       PRES   REMARKS
BISMARCK       LGT RAIN  65  62  90 W5        29.96R
MINOT          TSTM      63  61  93 NE5       29.92S FOG
JAMESTOWN      CLOUDY    62  54  74 SE7       29.99F
MINOT AFB      HVY RAIN  63  63 100 SE2       29.91S
GARRISON         N/A     64  62  93 SE5       29.92F
WILLISTON      PTSUNNY   69  60  73 S6        29.91S
DICKINSON      PTSUNNY   63  60  90 VRB3      29.93R
HETTINGER      CLOUDY    63  61  93 SE3       29.96S
$$

 *****  OTHER AIRPORT OBSERVATIONS IN OUR AREA  *****

CITY           SKY/WX    TMP DP  RH WIND       PRES   REMARKS
WALHALLA       FAIR      57  57 100 MISG      30.01F
GRAFTON AIRPOR FAIR      57  55  94 SE6       30.03F
VALLEY CITY AR FAIR      66  55  68 S9        30.01F
CANDO          PTSUNNY   64  57  77 SE9       29.97F
CAVALIER APRT  FAIR      57  55  94 SE5       30.02F
GWINNER        FAIR      64  59  82 SE6       30.01F
ROLLA          FAIR      59  55  88 SE13      29.97F
 ***** THE ABOVE OBSERVATIONS ARE NON NWS ARE NOT QUALITY
       CONTROLLED AND MAY MIS-REPORT RAIN FOR SNOW...
$$

  *****  WEATHER ACROSS NORTHERN MINNESOTA  *****

CITY           SKY/WX    TMP DP  RH WIND       PRES   REMARKS
FLAG ISLAND    CLOUDY    64  55  72 S7        30.08R
WARROAD        SUNNY     59  55  88 S3        30.09R
ROSEAU         MOSUNNY   59  54  82 S6        30.08R
HALLOCK        MOSUNNY   61  55  82 SE7       30.04S
THF RVR FALLS  MOSUNNY   59  54  82 SE7       30.06S
BAUDETTE       SUNNY     55  50  83 S3        30.09R
WASKISH        SUNNY     54  54 100 CALM      30.09S
CROOKSTON      SUNNY     61  55  82 S8        30.05S
$$
  *****  WEATHER ACROSS CENTRAL AND WEST MINNESOTA  *****

CITY           SKY/WX    TMP DP  RH WIND       PRES   REMARKS
FOSSTON        SUNNY     61  55  82 SE3       30.07R
BEMIDJI        SUNNY     60  54  80 SE5       30.07S
PARK RAPIDS    SUNNY     59  52  77 SE3       30.07S
ELBOW LAKE     FAIR      63  57  81 SE6       30.04S
WADENA         MOSUNNY   59  55  88 E6        30.06S
DETROIT LAKES  MOSUNNY   61  54  77 SE6       30.07S
MOORHEAD       MOSUNNY   63  57  82 SE7       30.03F
FERGUS FALLS   MOSUNNY   64  55  72 SE5       30.03F
MORRIS MN      MOSUNNY   63  57  82 E6        30.04R
STAPLES        SUNNY     59  55  88 E3        30.06S
$$
  *****  WEATHER ELSEWHERE ACROSS MINNESOTA  *****

CITY           SKY/WX    TMP DP  RH WIND       PRES   REMARKS
DULUTH         MOSUNNY   60  51  72 E3        30.09F
INTRNTL FALLS  SUNNY     53  51  93 CALM      30.10S
ELY            SUNNY     54  54 100 CALM      30.11F
CLOQUET        SUNNY     59  50  72 CALM      30.10R
WHEATON        MOSUNNY   59  55  88 SE5       30.05S
BRAINERD       SUNNY     58  54  86 VRB3      30.07F
HIBBING        SUNNY     53  49  86 CALM      30.10F
ALEXANDRIA     MOSUNNY   61  56  83 E6        30.07S
SAINT CLOUD    MOSUNNY   60  56  86 E6        30.06S
MINNEAPOLIS    MOSUNNY   64  58  80 SE7       30.04F
$$

  *****  WEATHER ACROSS SOUTH DAKOTA  *****

CITY           SKY/WX    TMP DP  RH WIND       PRES   REMARKS
SIOUX FALLS    PTSUNNY   63  56  78 E6        30.03S
BROOKINGS      PTSUNNY   55  52  88 CALM      30.06S
WATERTOWN      PTSUNNY   63  56  78 S5        30.04S
HURON          MOSUNNY    1  32 100 SE10      30.01S WCI -15
SISSETON         N/A     60  56  86 CALM      30.02S
ABERDEEN       PTSUNNY   62  58  86 S5        30.01S
MITCHELL       SUNNY     63  61  93 SE6       30.02R
PIERRE         PTSUNNY   66  63  90 SE14      29.96S
MOBRIDGE       SUNNY     69  65  86 SE15      29.94F
RAPID CITY     MOSUNNY   65  60  84 CALM      29.98S
$$

  *****  SOME WEATHER IN NEARBY STATES *****

CITY           SKY/WX    TMP DP  RH WIND       PRES   REMARKS
GLASGOW MT     SUNNY     63  60  90 E7        29.88S
GREAT FALLS MT CLEAR     50  48  93 CALM      29.96R
CHEYENNE WY    SUNNY     55  44  66 W12       30.19R
SCOTTSBLUFF NE FOG       59  59 100 CALM      30.07R VSB 1/4
OMAHA NE       CLOUDY    68  67  96 N6        29.99R
DES MOINES IA  CLOUDY    70  63  78 SE7       30.01S
DAVENPORT IA   SUNNY     66  59  78 E7        30.04S
CHICAGO IL     MOSUNNY   72  57  59 W3        30.05S
EAU CLAIRE WI  SUNNY     61  54  77 NE7       30.06S
LA CROSSE WI   MOSUNNY   61  59  93 S5        30.05S
$$

  *****  SOME NATIONAL WEATHER *****

CITY           SKY/WX    TMP DP  RH WIND       PRES   REMARKS
LA GUARDIA NY  PTSUNNY   76  60  57 W6        29.91R
RALEIGH NC     PTSUNNY   82  70  66 CALM      30.02R
ATLANTA GA     MOSUNNY   80  68  66 W6        30.06R
NEW ORLEANS LA PTSUNNY   83  75  77 SW8       30.03R HX  90
OKLAHOMA CITY  MOSUNNY   75  71  87 S6        29.92R
ALBUQUERQUE NM PTCLDY    64  44  48 E3        30.22R
SALT LAKE CITY CLOUDY    78  40  25 S13       29.96R
LOS ANGELES CA PTCLDY    67  62  84 CALM      29.91R
BOISE ID       MOCLDY    68  57  68 NW8       29.94R
SEATTLE WA     MOCLDY    55  50  82 S5        30.08R
$$

*** WEATHER ACROSS MANITOBA...SASKATCHEWAN AND ONTARIO ***
                ***ONTARIO***

CITY           SKY/WX    TMP DP  RH WIND       PRES   REMARKS
GERALDTON      PTSUNNY   57  50  77 NW13G20   30.05R
THUNDER BAY    MOSUNNY   57  54  88 W7        30.09S
SIOUX LOOKOUT  MOSUNNY   57  54  88 CALM      30.11S
TORONTO        MOSUNNY   64  50  59 NW17      29.97S
BIG TROUT LK   CLOUDY    54  50  87 NW6       30.09R
PICKLE LAKE    CLOUDY    54  50  87 NE3       30.10S
DRYDEN         PTSUNNY   59  54  82 NE3       30.10S
KENORA         PTSUNNY   57  55  94 S6        30.09S
$$
                *** MANITOBA***

CITY           SKY/WX    TMP DP  RH WIND       PRES   REMARKS
BRANDON        CLOUDY    57  55  94 E13       29.97F
DAUPHIN        PTSUNNY   54  52  94 CALM      29.99F
ISLAND LAKE    CLOUDY    57  54  88 S6        30.10S
PILOT MOUND      N/A     57  55  94 SE9         N/A
THE PAS        LGT RAIN  57  55  94 SE6       30.02F
THOMPSON       LGT RAIN  52  50  93 NE5       30.12S
WINNIPEG       PTSUNNY   59  54  82 SE5       30.04S
LYNN LAKE      CLOUDY    55  52  88 E8        30.11R
CHURCHILL      LGT RAIN  48  48 100 NE5       30.15S
GILLAM         CLOUDY    48  45  87 N7        30.15R
$$
                ***SASKATCHEWAN***

CITY           SKY/WX    TMP DP  RH WIND       PRES   REMARKS
ESTEVAN        LGT RAIN  63  61  94 SE7       29.92R FOG
KINDERSLEY     CLOUDY    57  57 100 NW7       29.86R FOG
LLOYDMINSTER   CLOUDY    55  54  94 NE7       29.84F FOG
PRINCE ALBERT  LGT RAIN  59  57  94 E17       29.81F
REGINA         LGT RAIN  59  59 100 SE13      29.86S
YORKTON        LGT RAIN  59  57  94 SE8       29.91S
N. BATTLEFORD  CLOUDY    61  57  88 N6        29.84R
LA RONGE       LGT RAIN  59  57  94 E7        29.98S
SASKATOON      PTSUNNY   57  57 100 W8        29.81R
SWIFT CURRENT  SUNNY     57 N/A N/A NW5       29.87R
$$
NOTE: THESE ARE AUTOMATED STATIONS WITH LIMITED QUALITY CONTROL
      "FAIR" INDICATES FEW OR NO CLOUDS BELOW 12,000 FEET WITH NO
      SIGNIFICANT WEATHER AND/OR OBSTRUCTIONS TO VISIBILITY.
      SKY/WX - SKY CONDITION AND SIGNIFICANT WEATHER.
      TMP - AIR TEMPERATURE.    DP   - DEWPOINT TEMPERATURE.
      RH  - RELATIVE HUMIDITY.  PRES - PRESSURE.
      HX  - HEAT INDEX.         WCI  - WIND CHILL INDEX.
$



USA.gov is the U.S. government's official web portal to all federal, state and local government web resources and services.